Location: *
(49.7115°N, 15.0136°E)
Time: 04:44:44
(UTC+00:00)

Cosmos 1937 Rocket - Pass Details

Date: 27 February 2020
Orbit: 747 x 780 km, 74.0° (Epoch: 29 March)

Event Time Altitude Azimuth Distance (km) Brightness Sun altitude
Rises 18:04:43 0° 336° (NNW) 3,256 7.2 -14.7°
Reaches altitude 10° 18:07:07 10° 336° (NNW) 2,320 6.4 -15.1°
Maximum altitude 18:12:24 88° 247° (WSW) 771 3.5 -16.0°
Drops below altitude 10° 18:17:35 10° 159° (SSE) 2,282 5.7 -16.8°
Enters shadow 18:19:02 - 159° (SSE) 2,846 6.2 -17.0°
